Temp_Advection
nan nan nan nan nan nan nan nan nan nan nan nan nan nan nan nan nan nan nan nan nan nan nan nan nan nan nan nan nan nan nan nan nan nan nan nan nan nan nan nan nan nan nan nan nan nan nan nan nan nan nan nan nan nan nan nan nan nan nan nan nan nan
nan -0 0 0 0 0 0 0 0 0 0 0 0 0 0 0 0 0 0 0 -0 0 0 -0 -0 -0 -0 0 0 -0 0 0 0 0 0 -0 0 0 0 0 1 1 0 0 0 -0 -0 -0 0 0 0 -0 -0 -0 -0 -0 -0 -0 -0 -0 -0 nan
nan -0 -0 -0 -0 -0 -0 -0 0 0 0 0 0 0 0 0 0 0 0 -0 -0 0 0 0 0 0 -0 1 1 -0 0 1 0 0 0 -0 0 0 0 0 1 1 0 0 0 0 -0 -0 -0 0 0 -0 -0 -0 -0 -0 -0 -0 -0 -0 -0 nan
nan -0 -0 -0 -0 -0 -0 -0 -0 0 0 0 0 0 0 0 0 0 0 0 0 0 0 0 0 0 0 0 1 0 1 1 0 0 0 0 0 1 0 0 0 1 1 0 0 0 0 -0 0 0 -0 -0 -0 -0 -0 -0 -0 -0 -0 -0 -0 nan
nan -0 -0 -0 -0 -0 -0 -0 -0 0 1 0 0 0 0 0 0 0 0 0 1 1 0 0 0 0 0 0 0 0 1 1 1 0 0 0 0 1 0 0 0 0 0 0 0 0 0 0 0 0 -0 -0 -0 -0 -0 -0 -0 -0 -0 -0 -0 nan
nan 0 0 -0 -0 -0 -0 -0 0 1 1 0 0 0 0 0 0 0 0 0 1 0 -0 -0 0 -0 0 -0 -1 -0 1 0 1 1 0 0 0 0 0 0 0 0 0 0 0 0 0 0 0 0 -0 -0 -0 -0 -0 -0 -0 -0 -0 -0 -0 nan
nan 0 0 -0 -0 -0 -0 0 1 1 1 0 0 0 0 0 0 0 0 0 0 -0 -0 -0 0 -0 0 -0 -0 0 1 0 0 1 1 0 0 0 0 0 0 0 0 0 -0 0 0 0 0 0 0 -0 -0 -0 -0 -0 -0 -0 -0 -0 -0 nan
nan 0 -0 -0 -0 -0 0 1 1 1 1 0 -0 -0 0 0 0 1 0 0 0 0 -0 -0 0 0 0 -0 0 1 1 0 0 0 1 1 0 -0 -0 0 0 0 0 0 0 0 0 -0 -0 0 0 0 -0 -0 -0 -0 -0 -0 -0 -0 -0 nan
nan 0 -0 -0 0 0 1 1 1 1 -0 -0 -0 0 0 -0 0 0 -0 -0 -0 -0 -0 -0 0 0 0 0 0 1 0 0 0 0 0 1 0 -0 -0 -0 0 0 0 0 0 0 0 -0 -0 0 0 0 0 -0 -0 -0 -0 -0 0 0 -0 nan
nan 0 0 0 0 1 1 1 1 0 -0 -0 -0 0 0 0 -0 -1 -1 -0 -0 -0 -0 0 0 0 0 0 0 0 0 0 0 0 0 1 1 0 -0 -0 -0 0 -0 0 0 0 0 -0 0 0 0 0 0 -0 -0 -0 -0 -0 0 0 -0 nan
nan 0 0 0 1 1 1 1 0 -0 -0 -0 0 0 0 -0 -0 -0 -0 -0 -0 0 -0 0 0 0 0 0 0 0 0 0 0 0 0 1 1 0 0 0 -0 -0 0 0 0 0 -0 0 0 0 0 -0 0 0 -0 -0 -0 -0 -0 -0 -0 nan
nan 0 0 1 1 0 0 0 -0 0 0 0 0 0 0 -0 -0 0 0 -0 0 0 -0 -0 0 0 0 0 0 0 0 -0 -0 0 0 0 0 0 0 1 0 -0 0 -0 -0 -0 -0 0 0 0 0 -0 0 0 -0 -0 -0 -0 -0 -0 -0 nan
nan 0 1 1 0 0 0 0 1 1 0 0 0 0 0 0 0 0 0 0 0 -0 0 0 0 0 0 0 0 0 -0 -0 -0 0 0 0 0 0 0 0 0 0 -0 -0 -0 -0 -0 0 0 0 0 0 0 0 0 0 -0 -0 -0 0 0 nan
nan 1 1 0 0 0 0 1 0 0 1 1 1 0 0 0 -0 0 0 -0 -0 0 0 0 0 0 -0 0 0 -0 -0 0 0 0 0 -0 0 0 0 0 0 0 -0 -0 -0 0 0 0 0 0 0 0 0 0 0 0 0 0 -0 0 0 nan
nan 1 1 0 0 0 0 1 0 0 1 1 1 0 0 0 0 0 0 -0 -0 0 0 0 0 0 -0 -0 -0 0 0 0 0 0 0 -0 0 0 0 0 0 0 0 -0 0 0 0 0 0 0 0 0 0 0 0 0 0 0 0 0 0 nan
nan 0 0 0 1 0 0 0 1 1 1 1 0 0 -0 0 0 0 0 0 0 0 0 -0 0 0 0 0 -0 0 0 0 0 0 0 0 0 0 0 0 0 0 0 0 0 0 0 0 0 0 0 0 0 0 0 0 0 0 0 0 0 nan
nan 0 0 1 0 0 0 1 1 1 0 0 0 -0 -0 0 0 0 0 0 0 0 0 -0 0 0 0 0 0 0 0 0 0 0 0 0 1 0 0 0 0 0 0 0 0 0 -0 0 0 0 0 0 0 0 0 0 0 0 0 0 0 nan
nan 0 0 0 0 0 0 0 1 1 0 -0 -0 -0 -0 0 0 0 0 0 0 0 0 0 0 0 0 0 0 0 -0 -0 0 0 0 0 0 0 0 0 0 0 0 0 0 0 0 0 0 0 0 0 0 0 0 0 0 0 0 0 0 nan
nan 0 0 0 0 0 0 0 0 0 -0 -0 -0 -0 -0 0 0 0 0 -0 0 0 0 0 0 0 0 0 0 -0 -0 -0 0 0 0 -0 -0 -0 -0 -0 0 0 0 0 0 0 0 0 0 0 0 0 0 0 0 0 0 0 0 0 0 nan
nan 0 0 0 0 0 -0 0 0 -0 -0 -0 -0 -0 -0 0 0 0 0 -0 -0 0 -0 -0 0 0 0 0 -0 -0 -0 0 0 0 -0 -0 -0 -0 -0 0 0 0 0 0 0 0 0 0 0 0 0 0 0 0 0 0 0 -0 -0 -0 0 nan
nan 1 0 -0 -0 0 -0 0 0 -0 -0 -0 -0 -0 0 0 1 1 0 -0 -0 -0 0 0 0 0 0 -0 -0 -0 -0 1 1 0 -0 -0 0 0 0 0 -0 0 0 0 0 0 0 0 0 0 0 0 0 0 0 0 0 -0 -0 0 0 nan
nan 0 0 0 0 -0 -0 -0 0 -0 -0 -0 -0 -0 0 0 1 1 -0 -0 -0 0 0 0 0 0 -0 -0 -0 -0 0 1 1 0 0 0 -0 0 -0 -0 -0 0 0 0 0 0 -0 -0 0 0 0 0 0 0 0 0 0 0 0 0 0 nan
nan -0 0 0 0 -1 -1 0 0 0 -0 -0 -0 -0 0 0 1 0 -0 -0 -0 0 0 0 0 -0 -0 -0 -1 -0 0 1 0 0 -0 -0 -0 -0 -0 -0 0 0 -0 -0 -0 -0 -0 0 0 0 0 0 0 0 0 0 0 0 0 0 0 nan
nan 0 0 -0 -0 -1 -1 0 1 0 0 -0 -0 -0 -0 0 0 0 -0 -0 -0 0 0 0 0 0 -0 -0 -1 -0 1 1 0 -0 -0 -0 -0 -0 0 0 0 -0 -0 -0 -0 -0 -0 0 0 0 0 -0 0 0 0 -0 -0 -0 0 0 0 nan
nan 0 -0 -0 -1 -1 -0 0 1 0 0 -0 0 -0 -0 -0 0 0 0 -0 -0 -0 0 0 0 0 0 -0 -1 -0 1 1 0 0 0 -0 0 0 0 0 -0 -0 -0 -0 -0 -0 0 0 0 0 0 -0 -0 -0 -0 -0 -0 -0 0 0 -0 nan
nan -0 -1 -0 -1 -0 0 0 -0 -0 -0 -0 0 0 -0 0 0 0 0 0 -0 -1 -0 -0 -0 0 0 -0 -1 0 1 1 0 0 -0 -0 0 0 -0 -0 -0 -0 -0 0 0 0 0 0 0 0 0 -0 -0 -0 -0 -0 -0 -0 -0 -0 -0 nan
nan -0 -1 -0 -0 0 1 0 -1 -1 -0 -0 -0 0 1 1 1 0 -0 -0 -0 -0 0 0 0 0 0 0 0 1 1 0 0 0 -0 -0 -0 -0 -0 0 0 0 0 0 0 -0 0 0 -0 -0 -0 -0 -0 -0 -0 -0 -0 -0 -0 -0 -0 nan
nan -0 -0 0 0 0 0 -0 -1 -1 -0 0 1 1 1 2 1 1 -0 -0 -0 0 0 0 0 0 0 0 1 1 0 0 -0 -0 -0 -0 -0 -0 -0 0 0 0 0 0 -0 -0 -0 -0 -0 -0 -0 -0 -0 -0 0 0 0 -0 -0 -0 -0 nan
nan -0 -0 0 0 0 0 -0 0 -0 -0 0 1 1 2 1 0 0 0 -0 0 0 0 0 0 0 0 1 1 0 0 0 -0 -0 -0 -0 -0 0 -0 -0 0 0 0 0 0 0 -0 -0 0 0 0 -0 -0 -0 -0 0 0 -0 -0 -0 -0 nan
nan -0 -0 0 0 0 0 -0 0 0 -0 -0 1 1 1 1 0 0 0 0 0 0 -0 -0 -0 0 0 0 0 -0 -0 -0 -1 -0 -0 -0 0 0 -0 0 0 0 0 0 0 -0 -0 0 0 0 0 0 0 -0 -0 0 0 0 0 -0 -0 nan
nan -1 -0 0 1 0 0 -0 -0 0 0 0 0 1 1 1 0 0 0 0 0 0 0 -0 -0 0 0 0 -0 -0 -0 -0 -0 -0 -0 -0 0 0 -0 0 0 0 0 -0 0 0 0 0 0 0 0 -0 -0 -0 0 0 0 -0 0 0 0 nan
nan -1 -0 0 0 0 -0 -0 -0 1 1 1 -0 0 0 0 0 0 0 0 0 0 0 -0 -0 -0 -0 -0 0 0 -0 -0 -0 -0 -0 0 0 0 0 0 -0 0 -0 -0 0 0 0 0 0 -0 -0 -0 0 0 0 0 0 -0 -0 0 0 nan
nan -0 -0 -0 0 -0 -0 -0 0 1 1 1 0 -0 -0 0 0 0 0 0 0 -0 -0 -0 -0 -0 -0 -0 0 0 -0 0 0 -0 0 0 0 0 -0 -0 -0 0 0 0 0 0 0 0 -0 -0 -0 0 0 0 0 0 -0 0 0 0 0 nan
nan 0 0 -0 -0 -1 -1 -0 0 0 1 1 1 -0 -0 0 0 0 0 0 -0 -0 0 0 -0 -0 -0 -0 -0 -0 0 0 0 0 0 0 0 0 -0 -0 0 0 0 0 0 0 0 0 0 0 0 0 0 0 0 -0 -0 0 0 -0 -0 nan
nan 0 -0 -1 -1 -1 -1 -0 -0 -0 0 1 1 0 -0 -0 -0 -0 0 0 0 -0 0 0 0 0 0 -0 -0 -0 -0 -0 0 0 0 0 0 0 0 0 0 0 0 0 0 0 0 0 0 0 0 0 0 0 0 -0 -0 0 0 0 0 nan
nan -0 -0 -1 -1 -1 -1 -1 -0 -0 -0 0 1 1 -0 -0 -0 -0 0 0 0 0 0 0 0 -0 -0 -0 -0 -0 -0 -0 0 0 -0 -0 0 0 0 0 0 0 0 0 0 0 0 0 0 0 0 0 0 0 -0 -0 -0 0 0 0 0 nan
nan nan nan nan nan nan nan nan nan nan nan nan nan nan nan nan nan nan nan nan nan nan nan nan nan nan nan nan nan nan nan nan nan nan nan nan nan nan nan nan nan nan nan nan nan nan nan nan nan nan nan nan nan nan nan nan nan nan nan nan nan nan
Wind_Speed
20 20 19 18 17 16 15 14 13 11 10 9 9 8 8 8 8 8 7 7 7 7 7 8 10 11 12 14 13 12 12 14 16 18 19 21 21 20 19 17 14 12 10 8 7 6 7 8 9 10 10 11 12 12 13 13 13 13 13 12 11 11
19 19 19 18 17 16 15 15 14 13 11 11 11 10 10 11 11 10 9 9 8 8 8 8 10 11 12 13 14 13 13 13 15 17 19 21 22 22 21 18 16 14 12 9 8 6 5 7 8 8 9 10 11 11 13 13 12 13 13 12 11 11
19 18 19 18 18 17 16 15 15 15 15 13 13 13 13 13 13 12 11 10 9 9 10 10 10 11 12 12 13 13 13 14 15 16 18 22 24 24 22 20 17 15 13 10 8 7 5 5 7 7 7 8 9 10 12 12 12 12 12 11 10 10
18 18 19 19 18 17 16 16 17 18 17 16 16 15 14 14 14 13 12 11 10 10 11 12 11 12 12 12 13 14 15 14 15 16 18 22 25 25 23 20 18 16 14 11 8 7 5 5 5 5 6 7 8 8 10 11 11 10 10 10 10 9
17 18 18 19 18 17 17 17 18 19 18 18 17 16 15 15 15 14 12 12 12 11 12 13 13 13 13 13 13 15 15 14 15 16 17 21 25 26 23 21 19 17 14 12 9 6 6 5 5 4 4 5 6 7 9 10 10 9 9 9 9 9
17 17 16 17 17 17 17 18 19 19 18 18 18 16 16 16 16 14 13 13 13 12 11 11 13 14 13 12 12 16 15 14 15 16 18 21 25 26 24 21 20 17 15 13 10 7 6 6 5 3 2 3 5 7 8 9 8 8 7 8 8 8
17 15 15 15 16 17 18 19 20 19 18 18 18 17 17 17 16 15 14 14 13 12 11 10 11 13 13 12 12 15 15 14 15 17 18 20 24 26 25 22 21 18 16 14 12 9 7 6 4 2 1 1 4 6 8 8 7 6 6 6 7 7
16 15 15 16 17 18 20 21 20 19 18 18 17 17 17 17 16 15 14 13 13 13 12 10 11 11 11 12 13 14 14 15 16 17 19 20 22 25 26 24 21 19 17 15 13 11 8 6 4 2 2 1 3 5 7 7 6 5 5 5 5 6
15 15 17 18 19 21 21 21 21 19 19 17 16 18 17 17 17 15 14 15 15 14 13 11 10 10 10 11 13 14 15 16 16 18 20 21 21 23 26 25 22 20 18 16 14 12 10 7 5 4 3 2 2 4 6 6 6 5 5 4 4 4
17 18 20 21 22 22 21 21 20 20 19 17 17 18 18 18 17 16 16 17 17 15 12 11 11 12 12 12 11 14 17 17 17 18 20 21 21 21 24 26 25 22 19 17 15 13 10 8 7 6 5 3 2 3 4 5 5 5 4 4 4 4
20 20 21 22 22 22 21 21 21 20 20 19 19 19 19 19 17 17 18 18 18 16 13 11 12 13 13 12 12 15 18 18 17 18 20 22 22 21 22 25 26 24 22 19 17 15 12 10 9 7 5 3 2 3 3 3 3 4 4 3 3 3
21 21 22 22 22 22 22 22 22 21 21 21 21 19 18 18 17 18 19 19 18 16 13 12 14 13 12 12 13 15 17 17 17 17 19 22 22 23 23 24 25 25 24 21 18 16 14 12 10 8 6 4 1 2 2 1 2 2 3 2 2 2
20 21 22 22 22 22 22 23 22 22 21 21 20 18 17 17 16 18 20 19 17 15 14 15 15 15 14 13 13 14 14 14 15 17 19 22 23 24 24 24 25 25 24 21 19 17 15 13 10 8 6 4 1 1 1 0 1 2 2 2 2 2
20 21 22 22 23 23 22 23 23 22 21 20 20 18 16 16 16 18 20 19 17 16 17 17 17 16 15 14 14 13 13 12 14 18 20 22 24 25 25 25 25 24 23 20 18 16 15 12 10 8 6 4 2 2 2 2 1 2 2 2 2 2
19 21 22 22 22 22 22 22 22 22 20 18 19 18 17 16 16 19 20 19 18 18 17 17 18 17 16 16 15 15 13 12 13 17 21 22 24 26 25 24 24 23 21 19 17 16 14 11 10 8 6 5 4 4 3 3 3 3 3 3 3 3
19 20 21 21 21 21 22 21 21 20 18 17 17 17 17 16 17 19 20 20 19 18 17 18 18 17 17 16 16 16 15 13 12 15 19 22 25 26 26 25 24 22 20 19 17 16 14 11 9 8 6 6 5 5 4 4 4 4 4 3 4 3
18 20 20 20 19 20 21 21 21 20 18 18 18 17 17 17 17 19 21 21 20 19 18 18 18 17 17 16 16 18 17 14 13 14 17 21 24 26 26 25 23 22 19 18 17 15 13 11 10 8 8 7 6 6 6 6 6 5 4 4 4 3
17 19 20 19 19 20 20 19 20 19 18 18 19 19 19 19 18 19 22 22 21 20 19 18 18 18 17 17 17 18 18 17 15 16 17 19 22 24 24 23 22 21 19 17 15 14 12 11 10 10 9 8 7 7 7 7 6 5 4 4 4 3
15 17 18 18 18 19 18 17 18 19 18 17 18 19 20 20 20 20 22 22 20 20 20 20 19 18 17 17 17 18 19 18 18 19 19 19 20 22 23 22 21 21 19 17 14 13 12 11 11 11 10 9 9 9 8 7 6 6 5 5 4 4
14 15 16 16 18 19 19 18 18 18 17 16 17 19 20 20 21 21 21 19 18 18 19 21 19 18 17 17 17 18 19 19 20 22 20 20 20 20 20 20 20 19 18 17 16 14 12 11 11 11 10 9 9 8 8 8 7 7 7 7 6 5
11 12 13 15 16 18 19 18 18 17 16 17 17 19 19 19 20 21 20 17 16 16 18 19 19 18 17 18 19 19 20 20 21 23 21 19 19 19 18 17 17 17 16 16 16 14 13 12 12 12 11 11 10 8 8 8 7 7 9 9 7 6
10 9 9 11 13 16 17 16 16 15 16 17 17 17 17 17 19 21 19 15 15 16 17 18 18 17 18 19 21 20 20 20 21 22 21 18 17 17 17 16 16 16 16 16 15 14 14 14 14 13 14 14 13 11 10 8 7 8 9 9 8 7
10 8 7 7 10 11 11 13 14 14 16 17 17 17 17 18 19 21 18 15 16 17 18 18 17 17 19 20 20 20 21 21 21 22 20 17 17 17 17 17 16 16 16 16 15 15 14 15 14 14 15 15 14 13 11 10 11 10 9 9 8 8
9 8 6 7 10 10 9 12 15 15 17 18 18 17 18 19 21 22 20 17 16 17 18 19 18 18 18 20 20 20 21 21 21 21 19 17 17 18 18 19 17 16 16 16 16 16 15 15 15 14 14 13 12 11 10 11 13 11 10 10 9 9
9 8 7 9 12 11 11 14 16 15 17 18 20 21 21 22 22 22 21 18 16 16 18 19 20 20 18 19 20 20 22 22 22 21 20 18 17 17 18 19 18 16 16 15 14 15 15 16 15 14 12 9 9 9 10 12 11 9 11 11 10 9
9 10 10 11 12 12 13 15 15 15 16 17 20 23 24 24 23 22 21 19 17 18 18 17 18 18 18 20 22 23 24 23 22 21 19 17 17 17 18 19 18 16 14 13 13 14 15 16 16 16 13 9 6 5 6 10 9 8 10 11 10 9
9 11 12 12 12 14 16 17 17 16 16 17 20 21 22 23 23 22 21 19 17 18 17 16 16 16 18 21 23 25 24 22 22 21 17 16 17 17 18 18 16 14 12 13 13 13 13 14 16 17 15 11 7 3 2 4 6 7 8 9 10 10
11 13 14 14 14 16 17 18 19 18 17 19 21 20 21 23 23 21 20 19 18 17 16 16 17 17 19 22 24 25 23 22 21 20 17 16 16 16 17 17 16 14 13 13 12 12 11 13 16 17 15 13 11 7 4 2 2 4 6 6 8 10
11 14 16 17 17 17 18 19 22 22 19 19 20 21 22 23 21 20 19 17 17 18 16 15 16 16 19 22 24 24 22 21 20 20 19 17 16 17 16 16 16 15 14 13 12 12 11 10 12 14 13 13 12 10 8 5 3 4 6 6 6 9
12 15 17 18 18 19 19 20 23 25 23 20 18 19 21 22 20 19 18 14 14 15 14 15 14 15 18 20 21 22 20 20 21 21 20 18 17 17 17 16 15 15 14 13 13 12 11 9 10 12 12 11 11 10 9 7 5 5 7 8 7 7
15 17 18 18 19 20 21 22 24 25 25 23 19 16 17 19 17 16 15 12 11 12 13 14 14 15 18 19 20 20 19 19 20 20 19 18 17 16 17 17 16 15 14 13 13 12 12 11 10 11 12 10 10 10 8 7 5 5 6 9 8 6
18 19 20 19 19 21 22 23 24 24 25 25 22 18 15 15 14 13 13 11 10 11 12 13 14 15 18 19 20 20 19 19 20 19 18 16 15 16 17 16 16 15 14 13 13 13 13 12 11 11 11 10 10 10 9 7 5 5 5 7 7 6
19 20 19 18 19 21 21 23 24 24 25 25 24 20 15 13 12 12 11 9 9 10 11 12 14 15 17 19 19 19 19 19 18 18 17 15 15 16 16 16 15 14 13 13 13 13 13 12 11 11 10 10 10 10 9 7 6 4 4 6 7 6
18 19 19 19 21 22 21 22 23 25 26 26 24 20 16 14 13 12 11 8 8 10 10 12 15 16 16 17 17 17 17 16 16 16 15 15 15 15 15 15 14 13 13 12 12 12 12 11 11 10 9 9 9 9 8 7 6 5 5 5 6 6
17 18 18 19 23 25 25 25 24 25 27 27 25 21 18 15 13 12 10 8 9 10 10 13 15 16 16 16 15 16 16 15 16 16 15 16 16 15 14 13 13 12 12 12 12 12 11 10 11 10 9 8 8 8 8 8 7 6 5 4 4 5
15 17 18 18 23 28 29 26 25 27 29 28 25 22 20 17 14 12 10 9 10 11 11 13 14 15 16 17 16 15 15 15 16 16 16 16 15 14 13 13 13 13 12 12 11 11 10 10 10 10 9 9 8 8 8 8 7 6 6 5 4 5
13 16 17 19 23 26 27 26 26 28 29 29 27 24 22 18 14 12 11 11 12 12 13 14 15 15 16 16 16 16 15 16 17 16 15 15 14 14 14 14 13 13 11 11 11 10 10 10 10 10 10 10 9 8 9 8 7 7 7 7 6 6
Wind_Direction
188 187 188 189 192 193 193 194 197 202 203 204 200 202 207 212 215 213 208 207 209 211 209 198 193 190 189 195 191 182 178 168 165 167 170 173 175 176 180 186 186 187 186 175 154 129 111 99 90 80 69 63 61 56 55 55 55 53 51 51 50 52
189 189 189 191 194 196 199 199 202 207 209 211 207 207 209 213 218 220 219 216 218 220 220 217 211 202 195 198 194 189 189 180 168 167 171 173 176 178 182 188 191 192 192 187 170 149 124 102 94 82 68 63 59 52 47 45 46 46 44 44 44 47
194 192 192 195 198 200 204 205 208 212 213 213 211 209 209 212 215 218 222 224 227 227 222 220 218 211 204 200 196 197 197 189 177 169 171 174 176 179 183 189 193 195 196 196 183 165 146 116 102 85 69 62 55 45 40 38 38 38 38 40 41 45
199 198 198 199 202 204 207 211 214 217 216 213 213 211 210 212 214 218 222 226 229 227 221 215 212 211 210 201 194 200 198 191 186 174 172 176 177 179 182 188 194 196 197 200 194 175 161 140 120 94 70 58 50 39 33 33 34 33 34 38 41 43
205 204 204 203 205 206 209 214 218 221 218 215 216 214 212 211 213 217 220 224 226 221 217 214 207 202 209 203 195 205 200 189 190 180 175 178 179 179 181 188 194 197 198 200 201 186 170 158 140 114 77 55 42 32 30 32 34 33 33 34 38 42
210 208 206 206 207 208 212 217 220 222 219 216 217 216 214 213 214 217 218 220 219 213 214 217 210 202 208 205 202 215 210 190 188 183 178 179 181 180 180 188 195 198 198 198 204 198 183 171 156 137 104 58 31 26 29 30 33 35 33 32 35 42
210 204 201 205 208 211 216 220 222 223 220 218 217 218 218 215 215 216 215 215 212 212 218 222 216 210 211 210 211 218 214 199 188 184 182 181 183 182 181 188 196 199 199 199 205 205 196 186 178 172 161 74 26 23 25 29 35 39 38 38 41 45
209 199 198 205 209 215 220 222 223 222 220 219 219 222 222 216 215 212 212 213 212 216 225 227 217 211 209 211 217 216 214 207 192 185 185 184 184 184 184 188 196 201 200 199 204 207 202 200 206 218 230 280 13 20 23 28 38 48 52 51 49 49
212 206 206 210 213 218 220 222 223 222 221 218 220 225 222 216 211 207 213 216 217 219 224 227 216 210 207 208 211 208 209 208 195 186 186 187 185 185 188 191 195 201 202 198 201 205 205 211 226 236 243 265 349 12 20 27 40 58 63 60 55 50
213 213 213 215 217 219 221 223 224 225 224 216 217 223 220 215 210 209 217 216 218 221 221 222 216 213 214 213 213 207 205 204 197 188 186 188 188 185 189 193 196 200 203 200 198 202 206 216 229 235 237 249 314 354 9 22 43 63 70 68 59 52
215 216 217 217 219 222 225 227 225 227 227 216 215 219 216 217 213 213 217 214 218 223 216 213 212 213 216 217 216 210 207 202 198 192 186 188 189 187 189 193 197 201 204 202 200 204 208 214 223 229 231 240 285 333 353 23 46 60 75 79 63 49
222 223 222 219 219 223 227 232 230 230 229 220 216 217 218 222 218 215 216 214 218 224 219 213 210 211 212 210 207 206 208 205 202 198 191 188 188 189 191 193 197 201 204 204 205 210 213 215 219 222 220 225 272 332 343 44 53 67 86 75 60 52
227 227 225 221 222 225 230 236 236 232 229 224 218 216 221 227 224 218 218 217 219 225 226 221 215 210 207 205 201 202 208 208 204 203 197 191 188 191 193 194 197 201 205 207 210 214 218 218 217 213 206 205 230 317 305 140 72 93 101 76 70 72
230 230 228 226 227 230 232 236 240 239 234 228 220 216 220 227 227 220 219 219 219 223 225 224 221 214 208 203 201 203 206 207 206 204 201 195 191 192 194 195 197 202 205 207 211 216 220 219 214 207 201 203 226 257 231 200 173 149 136 114 110 106
232 234 232 232 233 234 236 238 243 244 240 231 221 219 221 223 224 221 219 219 218 221 224 227 226 221 215 207 202 205 206 206 209 206 203 199 194 194 195 195 199 203 204 206 213 217 217 215 212 208 207 214 228 237 221 201 180 168 161 139 126 118
233 237 239 240 239 237 239 242 246 247 241 231 226 226 224 224 225 222 221 220 219 219 221 227 230 227 224 215 205 206 206 205 209 208 204 201 197 195 196 197 201 204 206 209 214 215 212 211 210 209 213 220 224 222 207 190 179 173 165 146 134 130
237 240 245 246 243 241 241 243 247 247 238 230 233 235 228 227 229 227 227 224 222 222 223 228 231 231 230 224 212 208 207 205 206 208 204 200 198 197 197 200 203 205 208 214 215 212 209 206 205 208 214 216 213 204 192 186 180 175 169 151 141 143
246 246 249 250 246 244 244 244 247 244 239 236 239 239 231 231 236 237 237 232 225 224 227 231 233 232 231 227 219 212 210 208 204 205 203 198 198 198 199 202 205 205 206 212 215 211 206 204 205 209 210 208 205 194 184 186 186 179 178 163 153 161
254 251 251 250 246 246 247 244 244 246 248 246 241 236 231 234 241 244 246 241 232 229 231 232 232 231 230 228 223 216 214 213 205 203 203 200 200 201 201 203 206 208 207 207 211 211 209 211 212 209 204 200 197 191 185 186 192 190 190 183 175 179
260 258 256 252 246 245 247 245 243 247 252 248 240 235 233 237 243 248 254 253 246 240 240 238 232 228 229 228 222 214 214 216 205 201 203 204 204 203 201 202 204 208 210 208 207 209 214 218 214 203 196 194 189 186 186 187 199 206 202 198 193 187
266 261 257 254 248 246 249 251 249 249 254 251 240 237 238 240 245 252 258 259 253 250 252 248 239 231 229 226 219 213 214 214 203 201 205 205 205 203 201 203 205 207 214 215 209 206 210 214 209 196 183 180 178 182 192 192 206 217 209 205 201 194
276 270 257 245 242 248 256 263 263 260 260 256 248 244 246 249 255 260 261 259 257 259 259 253 244 238 234 227 217 212 216 213 205 206 209 207 207 208 205 207 211 212 216 219 217 212 207 205 206 201 186 177 176 183 193 197 207 214 207 208 209 202
290 290 275 236 224 235 253 262 263 262 259 257 256 256 257 260 263 265 263 258 261 266 262 254 248 243 239 230 217 213 217 215 209 209 207 205 207 210 210 213 215 215 216 215 216 218 213 208 208 201 186 177 182 188 194 204 212 212 204 205 210 206
293 291 276 235 218 212 220 237 242 249 254 254 256 258 258 258 260 264 264 257 257 263 262 257 253 248 241 232 221 214 216 216 212 208 204 204 207 207 208 213 215 216 219 215 213 215 214 212 211 203 187 178 185 193 199 209 214 213 205 200 204 209
285 281 258 230 223 213 214 229 232 239 250 254 259 262 261 259 258 259 261 257 255 256 257 255 251 248 241 233 227 218 214 214 211 207 205 208 209 206 207 213 217 218 220 220 218 217 212 208 208 209 206 193 187 199 209 211 211 212 211 204 202 212
269 268 255 235 225 216 222 235 234 235 243 249 257 262 264 266 268 264 261 262 262 258 253 246 241 239 235 233 229 219 212 209 208 209 210 212 210 206 209 214 217 218 220 224 227 227 220 210 202 202 214 215 197 195 200 203 209 211 214 213 208 210
259 256 253 243 230 222 226 238 238 235 239 241 245 252 257 264 270 271 268 268 267 260 249 236 229 229 228 230 228 217 209 207 208 211 213 214 211 207 209 214 218 221 224 227 230 234 231 220 206 200 206 212 209 202 171 188 213 208 205 216 214 208
260 254 250 243 236 230 231 238 239 238 243 247 247 250 256 261 266 269 272 275 268 256 244 230 226 226 223 224 222 211 205 209 208 209 214 215 212 209 210 215 219 223 225 224 226 231 234 228 216 208 205 208 212 218 219 219 250 220 210 216 210 205
266 260 253 246 240 237 235 237 241 242 243 249 252 254 258 262 267 272 275 275 262 249 241 233 228 226 221 218 215 207 204 210 207 207 213 213 211 213 215 218 219 221 221 218 218 221 226 228 223 218 215 215 216 218 222 226 248 236 223 223 215 211
278 270 257 248 244 242 241 240 243 244 242 244 248 251 255 259 266 274 278 274 256 247 243 239 231 224 218 210 205 204 204 205 204 207 210 208 210 215 219 221 220 220 219 216 215 214 213 212 216 222 225 226 225 226 226 229 252 250 227 226 231 228
283 277 266 256 248 246 247 247 247 247 247 248 250 249 252 257 263 272 279 278 261 249 243 239 229 217 211 201 196 200 200 198 201 206 206 205 209 216 222 224 219 216 215 214 214 210 204 199 202 216 227 233 236 237 234 237 269 279 252 241 239 237
277 277 275 268 258 254 253 253 253 252 251 254 256 256 254 255 261 267 272 276 265 248 240 233 221 207 199 194 192 194 195 196 200 204 206 205 210 219 223 221 215 212 211 209 207 204 201 197 196 206 220 230 234 235 235 241 262 278 275 262 249 248
275 276 277 272 265 261 257 256 257 258 258 258 259 259 257 252 255 259 260 264 256 241 232 222 209 195 188 189 191 191 193 198 200 202 206 206 210 217 218 215 213 212 209 205 203 203 201 199 201 205 214 224 229 231 233 240 251 253 257 255 243 248
279 277 277 277 274 267 262 262 263 263 264 262 260 258 256 252 251 252 249 241 232 226 219 210 200 189 184 186 188 190 193 198 202 204 207 206 207 211 213 213 213 210 207 205 204 206 204 202 205 209 215 221 224 229 233 237 242 238 239 245 238 245
285 282 282 285 282 272 263 261 263 266 266 264 263 261 256 253 250 248 241 220 208 206 205 202 193 184 186 188 190 193 195 199 204 207 208 206 202 204 209 211 208 206 207 208 208 208 208 208 209 211 217 218 216 223 231 234 238 234 232 237 240 252
285 289 292 293 288 280 272 266 261 263 265 266 266 264 259 255 249 245 236 211 197 192 193 195 188 184 187 190 193 198 200 203 207 208 208 206 200 198 204 204 203 205 207 210 213 212 213 216 214 215 217 214 213 222 229 230 235 237 228 222 228 246
297 298 299 295 290 287 284 278 266 262 265 269 268 265 261 256 247 241 227 203 190 184 184 188 187 186 190 194 196 201 205 206 207 205 203 203 199 196 200 200 201 205 209 212 215 217 221 223 220 219 217 215 216 225 229 228 231 235 226 218 225 235
Height
1525 1526 1528 1530 1531 1532 1534 1535 1537 1538 1540 1541 1543 1544 1544 1545 1546 1546 1547 1547 1548 1549 1550 1551 1551 1552 1552 1552 1553 1555 1556 1556 1557 1557 1557 1558 1559 1559 1560 1559 1559 1560 1562 1563 1564 1565 1566 1568 1568 1568 1569 1568 1569 1569 1568 1568 1568 1569 1569 1569 1569 1569
1525 1527 1528 1530 1531 1533 1534 1536 1537 1539 1540 1541 1542 1543 1544 1545 1545 1546 1546 1547 1548 1549 1550 1551 1551 1552 1552 1552 1553 1555 1556 1556 1557 1557 1558 1559 1559 1560 1560 1560 1560 1561 1562 1563 1564 1565 1566 1568 1568 1569 1569 1569 1569 1569 1569 1569 1569 1569 1569 1570 1570 1570
1525 1527 1529 1530 1531 1533 1535 1536 1538 1538 1539 1540 1542 1543 1543 1544 1545 1545 1546 1547 1548 1549 1550 1551 1551 1551 1551 1552 1553 1555 1556 1556 1557 1558 1558 1559 1560 1560 1561 1561 1561 1562 1562 1563 1564 1565 1566 1567 1568 1569 1569 1569 1569 1570 1570 1570 1570 1570 1570 1570 1570 1570
1526 1527 1529 1530 1531 1533 1535 1536 1537 1537 1538 1540 1540 1542 1543 1544 1544 1545 1546 1547 1548 1548 1549 1550 1551 1551 1551 1552 1553 1554 1556 1556 1557 1558 1559 1559 1560 1560 1561 1562 1562 1562 1563 1564 1564 1565 1566 1567 1568 1569 1570 1570 1570 1570 1570 1570 1570 1570 1570 1570 1570 1571
1526 1527 1528 1530 1531 1533 1534 1535 1536 1536 1537 1539 1540 1541 1542 1543 1544 1545 1546 1547 1548 1548 1549 1550 1550 1550 1551 1551 1552 1553 1555 1556 1557 1558 1559 1560 1560 1561 1562 1562 1562 1563 1564 1564 1565 1566 1566 1567 1568 1569 1569 1570 1570 1571 1571 1571 1571 1571 1571 1571 1571 1571
1525 1527 1528 1530 1531 1532 1534 1534 1535 1535 1537 1538 1539 1541 1542 1543 1544 1545 1546 1547 1548 1549 1549 1550 1550 1550 1550 1551 1552 1553 1555 1556 1557 1557 1559 1560 1560 1561 1562 1562 1563 1563 1564 1565 1565 1566 1566 1567 1568 1569 1569 1570 1571 1571 1571 1572 1571 1571 1571 1571 1571 1571
1525 1527 1528 1530 1531 1532 1532 1533 1534 1535 1536 1537 1539 1540 1541 1542 1543 1545 1546 1547 1548 1548 1549 1550 1550 1550 1550 1551 1551 1553 1554 1555 1556 1557 1558 1559 1560 1561 1562 1562 1563 1563 1564 1565 1566 1566 1567 1568 1568 1569 1569 1570 1571 1571 1572 1572 1572 1572 1572 1572 1572 1572
1525 1526 1528 1529 1530 1531 1531 1531 1533 1534 1535 1537 1538 1539 1540 1541 1543 1545 1546 1547 1548 1548 1549 1549 1549 1550 1550 1550 1551 1552 1554 1554 1556 1557 1558 1559 1560 1561 1562 1562 1563 1563 1564 1565 1566 1566 1567 1568 1568 1569 1569 1570 1571 1571 1572 1572 1572 1572 1572 1572 1572 1572
1524 1526 1527 1528 1528 1528 1529 1530 1531 1533 1534 1536 1537 1538 1539 1540 1542 1544 1546 1546 1547 1547 1548 1549 1549 1549 1550 1550 1550 1551 1552 1553 1555 1556 1558 1558 1560 1561 1562 1563 1563 1563 1564 1565 1566 1567 1567 1568 1568 1569 1569 1570 1571 1571 1572 1572 1573 1573 1573 1573 1572 1572
1523 1524 1525 1526 1526 1527 1528 1529 1530 1531 1533 1534 1535 1536 1538 1539 1542 1543 1544 1545 1546 1546 1547 1548 1549 1549 1549 1549 1550 1551 1552 1552 1554 1555 1557 1558 1559 1561 1562 1563 1563 1563 1564 1565 1566 1567 1567 1568 1568 1569 1569 1570 1570 1571 1572 1572 1573 1573 1573 1573 1573 1573
1521 1522 1523 1524 1525 1526 1527 1528 1529 1530 1531 1533 1534 1535 1536 1538 1541 1542 1542 1543 1544 1545 1546 1547 1548 1548 1548 1548 1549 1550 1551 1552 1553 1554 1556 1557 1559 1560 1561 1562 1563 1563 1564 1565 1566 1567 1567 1568 1568 1569 1569 1570 1570 1571 1572 1572 1573 1573 1573 1573 1573 1573
1520 1520 1522 1523 1524 1525 1526 1526 1527 1528 1529 1531 1533 1535 1536 1537 1539 1540 1541 1542 1543 1544 1545 1546 1546 1547 1547 1547 1548 1550 1551 1552 1553 1554 1555 1556 1558 1559 1560 1561 1562 1563 1563 1565 1566 1567 1567 1568 1569 1569 1570 1570 1570 1571 1571 1572 1572 1573 1573 1573 1573 1574
1518 1519 1521 1523 1524 1524 1525 1526 1526 1528 1529 1530 1532 1534 1535 1536 1538 1539 1540 1541 1542 1543 1544 1545 1545 1545 1546 1547 1548 1549 1550 1551 1552 1553 1554 1555 1557 1558 1559 1560 1561 1562 1563 1564 1566 1566 1567 1568 1568 1569 1570 1570 1570 1570 1571 1572 1572 1573 1573 1574 1574 1574
1517 1519 1521 1522 1522 1523 1524 1525 1526 1527 1529 1530 1532 1533 1535 1536 1537 1538 1539 1540 1541 1541 1543 1543 1544 1544 1545 1546 1547 1548 1549 1550 1551 1552 1553 1555 1556 1557 1558 1560 1561 1562 1563 1564 1565 1566 1566 1567 1568 1569 1569 1569 1570 1570 1571 1572 1572 1573 1573 1574 1574 1574
1517 1518 1519 1520 1522 1523 1524 1525 1526 1527 1529 1531 1532 1533 1534 1535 1535 1536 1538 1539 1539 1540 1541 1542 1543 1543 1544 1544 1546 1547 1548 1549 1550 1551 1552 1554 1555 1556 1557 1559 1560 1561 1562 1563 1564 1565 1566 1566 1567 1568 1569 1569 1570 1570 1571 1572 1572 1573 1573 1574 1574 1574
1516 1518 1518 1520 1522 1523 1524 1525 1526 1528 1530 1532 1533 1533 1533 1534 1534 1535 1536 1537 1538 1538 1539 1541 1542 1543 1543 1544 1546 1547 1548 1549 1549 1551 1552 1553 1554 1555 1557 1558 1560 1561 1562 1563 1563 1564 1565 1566 1567 1568 1568 1569 1569 1570 1571 1572 1572 1573 1573 1573 1574 1574
1517 1518 1519 1521 1522 1523 1524 1525 1526 1527 1529 1531 1532 1533 1533 1533 1533 1534 1534 1535 1536 1537 1538 1539 1541 1542 1543 1544 1546 1546 1548 1548 1549 1550 1552 1553 1554 1555 1556 1558 1559 1560 1561 1562 1563 1563 1564 1565 1567 1567 1568 1568 1569 1569 1570 1571 1572 1573 1573 1573 1573 1574
1518 1519 1520 1521 1522 1522 1523 1524 1525 1525 1526 1529 1531 1531 1532 1532 1532 1533 1532 1532 1533 1535 1536 1538 1539 1540 1542 1543 1545 1545 1547 1548 1549 1550 1552 1553 1554 1555 1556 1557 1559 1560 1561 1561 1562 1563 1564 1565 1566 1567 1567 1568 1568 1569 1570 1571 1572 1572 1573 1573 1573 1574
1519 1520 1521 1522 1522 1522 1522 1523 1524 1524 1525 1527 1528 1529 1530 1531 1531 1531 1530 1530 1532 1533 1535 1536 1537 1539 1541 1542 1543 1544 1546 1547 1549 1551 1552 1554 1555 1555 1555 1557 1558 1559 1560 1561 1561 1562 1563 1564 1565 1566 1567 1567 1568 1568 1569 1570 1571 1572 1573 1573 1573 1574
1517 1519 1520 1521 1522 1521 1521 1521 1522 1523 1525 1526 1527 1528 1529 1530 1530 1530 1530 1531 1533 1534 1535 1535 1537 1538 1540 1541 1542 1543 1544 1546 1549 1550 1551 1553 1554 1554 1555 1556 1557 1558 1559 1560 1560 1561 1562 1563 1565 1566 1566 1567 1567 1568 1569 1570 1571 1571 1572 1573 1573 1574
1515 1516 1518 1519 1520 1520 1520 1521 1522 1523 1525 1526 1526 1528 1528 1529 1530 1530 1531 1532 1534 1535 1535 1536 1536 1537 1538 1539 1540 1542 1543 1545 1547 1549 1550 1551 1553 1554 1555 1555 1556 1557 1558 1559 1560 1560 1562 1563 1564 1565 1566 1567 1567 1568 1569 1569 1570 1571 1572 1573 1573 1573
1514 1515 1516 1517 1519 1520 1522 1522 1523 1524 1525 1526 1527 1528 1528 1529 1530 1530 1532 1533 1534 1535 1535 1535 1535 1536 1536 1537 1539 1540 1541 1544 1546 1547 1548 1549 1551 1552 1553 1554 1555 1556 1557 1558 1559 1560 1561 1562 1563 1564 1565 1566 1567 1568 1568 1569 1570 1571 1571 1572 1572 1573
1515 1516 1517 1517 1518 1519 1522 1522 1523 1524 1525 1526 1527 1528 1528 1529 1529 1529 1531 1534 1533 1534 1534 1534 1534 1534 1535 1535 1538 1539 1540 1542 1544 1545 1546 1547 1549 1550 1552 1553 1554 1555 1556 1557 1558 1559 1560 1561 1562 1563 1565 1566 1566 1566 1567 1568 1569 1570 1571 1571 1572 1572
1516 1517 1518 1517 1517 1517 1518 1519 1519 1521 1522 1524 1526 1527 1527 1528 1528 1528 1530 1532 1532 1532 1533 1532 1532 1533 1533 1534 1536 1538 1539 1541 1542 1544 1545 1546 1547 1549 1551 1552 1553 1554 1555 1556 1557 1558 1559 1560 1561 1562 1564 1565 1565 1566 1566 1567 1567 1569 1570 1570 1571 1571
1515 1516 1516 1515 1515 1515 1516 1516 1517 1519 1520 1522 1524 1525 1526 1527 1528 1528 1528 1530 1531 1531 1531 1531 1531 1532 1532 1533 1535 1537 1538 1539 1541 1542 1544 1545 1546 1548 1550 1551 1551 1552 1554 1555 1556 1557 1558 1559 1561 1562 1562 1563 1564 1565 1565 1565 1566 1568 1569 1569 1570 1570
1515 1515 1515 1514 1514 1514 1515 1516 1516 1517 1517 1518 1520 1522 1524 1526 1527 1528 1528 1528 1529 1529 1529 1529 1530 1530 1531 1531 1533 1535 1537 1538 1539 1541 1543 1544 1545 1547 1549 1550 1550 1551 1552 1554 1555 1556 1557 1558 1559 1561 1561 1562 1562 1562 1563 1564 1565 1567 1568 1568 1569 1570
1515 1514 1514 1514 1514 1514 1514 1516 1515 1513 1513 1513 1514 1516 1519 1522 1525 1526 1527 1527 1527 1527 1527 1527 1527 1528 1529 1530 1531 1533 1535 1537 1538 1540 1542 1543 1545 1546 1548 1549 1549 1550 1551 1553 1554 1555 1556 1557 1558 1559 1560 1561 1561 1561 1562 1563 1564 1565 1566 1567 1568 1569
1514 1513 1513 1513 1513 1513 1514 1514 1513 1511 1510 1511 1512 1514 1517 1519 1521 1524 1526 1526 1526 1525 1524 1524 1525 1526 1527 1528 1530 1531 1533 1535 1537 1539 1540 1542 1544 1545 1547 1548 1548 1549 1550 1552 1553 1554 1555 1555 1556 1557 1558 1559 1560 1561 1562 1563 1563 1564 1565 1566 1567 1568
1513 1512 1511 1510 1511 1512 1512 1512 1511 1509 1508 1508 1509 1513 1516 1517 1519 1520 1522 1523 1522 1522 1522 1523 1524 1525 1525 1526 1528 1530 1532 1534 1536 1538 1539 1541 1543 1544 1546 1546 1547 1548 1549 1550 1551 1553 1554 1554 1556 1557 1558 1558 1559 1560 1561 1562 1563 1564 1564 1565 1566 1567
1511 1510 1509 1508 1509 1510 1510 1509 1508 1508 1507 1506 1507 1509 1512 1515 1516 1517 1518 1519 1519 1519 1520 1521 1522 1523 1523 1525 1527 1529 1531 1533 1535 1537 1538 1539 1541 1543 1544 1546 1547 1547 1548 1549 1550 1551 1552 1554 1555 1556 1557 1558 1559 1560 1560 1561 1562 1563 1564 1564 1565 1565
1509 1508 1506 1507 1508 1509 1509 1508 1507 1507 1507 1507 1507 1508 1510 1512 1514 1515 1516 1517 1517 1518 1518 1518 1519 1520 1521 1523 1525 1527 1529 1531 1534 1535 1537 1538 1540 1542 1543 1545 1546 1547 1547 1548 1549 1550 1551 1552 1554 1555 1556 1557 1558 1559 1560 1561 1561 1562 1563 1563 1564 1565
1506 1505 1505 1507 1508 1508 1508 1507 1506 1507 1507 1508 1508 1508 1508 1510 1512 1513 1514 1515 1516 1516 1516 1516 1517 1517 1519 1522 1524 1526 1528 1530 1532 1534 1535 1537 1538 1540 1542 1543 1545 1545 1546 1548 1549 1550 1550 1551 1552 1554 1555 1556 1558 1559 1559 1560 1561 1561 1562 1563 1564 1564
1503 1503 1505 1506 1506 1506 1507 1506 1506 1506 1506 1507 1508 1509 1508 1508 1509 1510 1512 1513 1513 1514 1514 1515 1515 1516 1518 1520 1522 1524 1527 1529 1531 1533 1534 1535 1537 1539 1541 1542 1543 1544 1545 1547 1548 1549 1550 1551 1552 1553 1555 1556 1557 1558 1558 1559 1560 1560 1561 1562 1563 1564
1502 1502 1504 1506 1506 1505 1506 1506 1506 1506 1506 1506 1507 1508 1508 1506 1507 1508 1509 1510 1510 1511 1512 1513 1514 1515 1517 1520 1522 1524 1526 1528 1530 1532 1533 1534 1535 1538 1539 1541 1542 1543 1545 1546 1547 1549 1550 1551 1552 1553 1554 1555 1556 1557 1558 1558 1559 1560 1561 1562 1562 1563
1501 1502 1503 1505 1505 1503 1503 1504 1505 1505 1505 1505 1506 1507 1507 1506 1505 1505 1506 1507 1508 1509 1510 1511 1512 1514 1517 1519 1522 1524 1526 1528 1529 1531 1531 1532 1534 1536 1538 1540 1541 1542 1544 1545 1546 1547 1549 1550 1551 1552 1553 1554 1555 1556 1557 1557 1558 1559 1560 1561 1562 1563
1501 1501 1502 1503 1502 1501 1501 1502 1503 1503 1502 1503 1504 1505 1505 1504 1504 1504 1504 1505 1506 1507 1509 1510 1512 1514 1517 1519 1521 1524 1526 1527 1529 1530 1531 1532 1533 1535 1537 1539 1540 1542 1543 1544 1545 1547 1548 1549 1550 1551 1552 1553 1554 1555 1556 1556 1557 1558 1559 1560 1561 1562
1502 1502 1502 1502 1501 1499 1499 1500 1501 1500 1500 1501 1502 1502 1502 1502 1502 1502 1503 1504 1505 1506 1508 1510 1512 1514 1517 1519 1521 1523 1525 1526 1528 1529 1530 1531 1532 1533 1535 1537 1539 1541 1542 1543 1545 1546 1547 1549 1550 1551 1551 1552 1553 1554 1555 1556 1556 1557 1558 1559 1560 1561